Regional Weather Roundup
Issued by NWS

Home | Current Version | Previous Version | Graphics & Text | Print | Product List | Glossary On
Versions: 1 2 3 4 5 6 7 8 9 10 11 12 13 14 15 16 17 18 19 20 21 22 23 24 25 26 27 28 29 30 31 32 33 34 35 36 37 38 39 40 41 42 43 44 45 46 47 48 49 50
069
ASUS45 KTFX 042210
RWRMT
MONTANA REGIONAL WEATHER ROUNDUP
NATIONAL WEATHER SERVICE GREAT FALLS MT
300 PM MST SUN DEC 04 2016

NOTE: "FAIR" INDICATES FEW OR NO CLOUDS BELOW 12000 FEET WITH NO
SIGNIFICANT WEATHER AND/OR OBSTRUCTIONS TO VISIBILITY.

MTZ001>007-043-042300-
WEST OF THE DIVIDE

CITY           SKY/WX    TMP DP  RH WIND       PRES   REMARKS
KALISPELL      CLOUDY    34  30  85 S5        29.59R
MISSOULA       PTSUNNY   38  34  85 SW3       29.63S
BUTTE          CLOUDY    34  23  64 SW8       29.57F WCI  27
MULLAN PASS    FOG       22  20  92 NW8       29.56R VSB 1   WCI  12
ANACONDA         N/A     37  25  60 S7        29.55F
DEER LODGE       N/A     39  19  45 W7        29.56F
EUREKA           N/A     39  18  41 W7        29.58R
HAMILTON         N/A     36  30  80 N10       29.63R WCI  28
LIBBY            N/A     32  32 100 E6        29.61S WCI  26
PLAINS           N/A     32  28  85 SW14      29.68R VSB 0   WCI  22
RONAN            N/A     34  30  85 CALM      29.71R
$$

MTZ008-052>055-042300-
SOUTHWEST MONTANA

CITY           SKY/WX    TMP DP  RH WIND       PRES   REMARKS
BOZEMAN        CLOUDY    41  26  55 SW14      29.55F
DILLON         CLOUDY    35  27  72 S17       29.59F WCI  25
W YELLOWSTONE  SNOW      25  23  93 SW14G24   29.68F VSB 1/2 WCI  13
ENNIS          MOSUNNY   34  23  64 S22G28    29.65F WCI  22
THREE FORKS      N/A     38 -49   2 S24       29.60F WCI  27
TWIN BRIDGES     N/A     35  26  70 S6        29.64F WCI  30
$$

MTZ009-010-012-014-046-048-049-054-042300-
EAST SLOPES AND CENTRAL MONTANA

CITY           SKY/WX    TMP DP  RH WIND       PRES   REMARKS
CUT BANK       CLOUDY    30  25  81 NW16      29.49S WCI  19
GREAT FALLS    CLOUDY    40  25  55 SW15      29.48S
MALMSTROM AFB  MOSUNNY   41  25  53 SW17G28   29.48F
HELENA         CLOUDY    40  28  62 NW9       29.52F
AUGUSTA          N/A     34  24  67 SW12      29.47R WCI  25
BOWMANS CRNR     N/A     33  28  81 SW18G28   29.46S WCI  22
CHOTEAU          N/A     37  25  60 NW22      29.51R WCI  27
FAIRFIELD        N/A     39  22  49 SW16      29.47R WCI  30
POWER            N/A     40  24  51 SW18G26   29.46R
RAYNESFORD     PTSUNNY   40  22  49 W22G31    29.48S
ULM            PTSUNNY   42  24  50 W14G23    29.48F
$$

MTZ011-013-016-021-045-047-050-051-042300-
NORTH CENTRAL MONTANA

CITY           SKY/WX    TMP DP  RH WIND       PRES   REMARKS
HAVRE          CLOUDY    38  28  67 SW8       29.47F
LEWISTOWN      CLOUDY    41  21  44 W21       29.49F
N BAR RANCH    CLOUDY    39  18  41 W14G20    29.51F WCI  31
CHINOOK          N/A     39  28  65 SW5       29.47F
DENTON         PTSUNNY   45  19  35 W41G52    29.43F
GEYSER         PTSUNNY   41  20  42 W21G31    29.46F
GRASS RANGE    PTSUNNY   41  22  47 W20G28    29.46F
JUDITH GAP       N/A     39  20  46 W24G37    29.50F WCI  28
ROY            CLOUDY    42  20  40 MISG      29.46F
STANFORD         N/A     40  20  44 W18G26    29.48F
WINIFRED       CLOUDY    42  19  41 MISG      29.45F
$$

MTZ017>020-022>027-061-062-042300-
NORTHEAST MONTANA

CITY           SKY/WX    TMP DP  RH WIND       PRES   REMARKS
GLASGOW        CLOUDY    38  28  67 W18G26    29.54F WCI  28
JORDAN           N/A     42  23  46 SW17      29.54F
SIDNEY         PTCLDY    35  26  69 SE7       29.61F WCI  29
WOLF POINT     PTCLDY    42  29  59 E3        29.57F
PLENTYWOOD       N/A     28  25  86 SE5       29.58S
POPLAR           N/A     36  27  69 SE7       29.58F WCI  30
SCOBEY           N/A     34  21  59 CALM      29.57S
$$

MTZ028>42-056>058-042300-
SOUTHCENTRAL AND SOUTHEAST MONTANA

CITY           SKY/WX    TMP DP  RH WIND       PRES   REMARKS
BAKER          CLOUDY    34  21  59 SW9       29.63F WCI  27
BILLINGS       CLOUDY    43  17  35 SW13      29.56F
LIVINGSTON     CLOUDY    37  23  56 SW37G49   29.51F WCI  23
MILES CITY     PTCLDY    43  20  39 W9        29.59F
BIG TIMBER     PTSUNNY   37  25  60 SW10      29.55F WCI  30
FORSYTH          N/A     43  25  49 SW8       29.59F
HARLOWTON        N/A     42  21  43 W25G31    29.50F
LAUREL           N/A     42  15  33 S10       29.58F
ROUNDUP          N/A     40  16  38 S3        29.50F
$$

REGIONAL REPORTS...DAKOTAS

CITY           SKY/WX    TMP DP  RH WIND       PRES   REMARKS
WILLISTON      CLEAR     32  22  66 S6        29.62S WCI  26
MINOT          CLEAR     29  20  69 SW8       29.63F WCI  21
DICKINSON      CLEAR     29  21  72 SW5       29.62F
BEACH            N/A     34  21  60 SW9G17    29.64F WCI  26
CROSBY           N/A     25  23  93 S8        29.62S WCI  16
TIOGA            N/A     25  23  93 SW9       29.62F WCI  15
WATFORD CITY     N/A     30  21  69 SE3       29.63S
BISMARCK       CLEAR     31  22  69 W6        29.69F WCI  25
GRAND FORKS    MOCLDY    32  28  85 W7        29.64S WCI  26
FARGO          CLOUDY    34  28  79 W14       29.68S WCI  25
BUFFALO SD       N/A     39  25  57 SW9       29.59F
RAPID CITY     CLEAR     43  12  28 SE3       29.69F
$$

REGIONAL REPORTS...WYOMING/IDAHO/WASHINGTON

CITY           SKY/WX    TMP DP  RH WIND       PRES   REMARKS
GILLETTE       CLOUDY    40  19  43 E5        29.64F
SHERIDAN       CLOUDY    39  20  46 E5        29.61F
BUFFALO WY     CLOUDY    42  14  32 E5        29.61F
CODY           CLOUDY    36  26  67 NW13      29.63F WCI  27
YELLOWSTONE LA   N/A     22  19  89 VRB7G17   29.68F WCI  13
IDAHO FALLS    LGT SNOW  32  28  85 S29G39    29.78F FOG     WCI  18
SALMON         CLOUDY    28  27  93 CALM      29.67F
BOISE          LGT RAIN  42  37  82 E10       29.81F
SPOKANE        PTSUNNY   37  25  61 NW12      29.74R WCI  29
$$

REGIONAL REPORTS...ALBERTA

CITY           SKY/WX    TMP DP  RH WIND       PRES   REMARKS
EDMONTON       CLOUDY    25  16  68 NW9G22    29.64R WCI  15
CALGARY        FLURRIES  23  19  86 N8        29.62S WCI  14
LETHBRIDGE     SNOWSHWR  25  25 100 N17G24    29.58R VSB 1   WCI  11
MEDICINE HAT   LGT SNOW  28  27  93 N9        29.55R VSB 5/8 WCI  20
WATERTON GATE    N/A     23  19  86 N8          N/A  WCI  14
CARDSTON         N/A     25  21  86 N13G20      N/A  WCI  13
MILK RIVER       N/A     27  19  74 NW16        N/A  WCI  14
ONEFOUR          N/A     32  25  74 E2          N/A
$$

REGIONAL REPORTS...SASKATCHEWAN

CITY           SKY/WX    TMP DP  RH WIND       PRES   REMARKS
SWIFT CURRENT  MOCLDY    19  18  93 N6        29.50F WCI  11
REGINA         MOCLDY    21  18  86 E7        29.58S WCI  13
SASKATOON      MOCLDY    28  21  74 SW5       29.58F
CYPRESS HILLS    N/A     28  25  86 NE3         N/A
VAL MARIE        N/A     34  30  86 E6          N/A  WCI  29
ROCKGLEN         N/A     32  28  86 S3          N/A
ASSINIBOIA       N/A     27  18  69 NW20G25     N/A  WCI  13
$$




USA.gov is the U.S. government's official web portal to all federal, state and local government web resources and services.